Content
SEND FEEDBACK

Daily
Averages
Monthly
Summary
United States of America

NEWBURGH, NEW YORK


Home > North America > United States > New York
Elevation: 361 feet     Latitude: 41 30N     Longitude: 074 15W

WEATHER
 
SELECT A DAY
Number of Records: 186,799;   Date Range: 12/17/97 - 12/20/14
 
SHARE

PRINT THIS DATA

[ ← Previous Day ]
WEATHER ALMANAC - FEBRUARY 13, 2013
[ Next Day → ]
[ °C ]   °F
Weather ElementAverageHighLow
Temperature34.7 °F39.9 °F (1:54 pm)24.1 °F (6:54 am)
Dewpoint23.1 °F30.9 °F (10:54 pm)19 °F (6:54 am)
Humidity64.4 %92 % (10:54 pm)45 % (2:54 pm)
Barometer29.79 in29.92 in (1:54 am)29.70 in (6:54 pm)
Wind Speed2.7 mph8.1 mph (12:54 pm)
Weather ElementAverage
Visibility8.9 mi
Wind DirectionESE (113.8 °)

Weather ElementTotal
Precipitation0.01 in
Heating Degree Days33 (Base 65)
Averaged from 26 records on February 13, 2013
WEATHER CONDITIONS BREAKOUT
WIND DIRECTION BREAKOUT
WEATHER BY HOUR - FEBRUARY 13, 2013
[ °C ]   °F
Local TimeTemperatureDewpointHumidityBarometerVisibilityWind DirectionWind SpeedGust SpeedPrecipitationEventsConditions
1:54 AM35.1 °F19.9 °F54 %29.92 in10.0 miWNW (300°)4.6 mphOvercast
2:54 AM34.0 °F21.0 °F59 %29.92 in10.0 miWNW (300°)3.5 mphOvercast
3:54 AM34.0 °F19.9 °F56 %29.91 in10.0 miWest (280°)5.8 mphOvercast
4:54 AM32.0 °F21.0 °F64 %29.90 in10.0 miCalmOvercast
5:54 AM27.0 °F19.9 °F75 %29.89 in10.0 miWest (260°)3.5 mphClear
6:54 AM24.1 °F19.0 °F81 %29.88 in10.0 miCalmClear
7:54 AM24.1 °F19.0 °F81 %29.90 in10.0 miCalmClear
8:54 AM33.1 °F21.0 °F61 %29.88 in10.0 miCalmClear
9:54 AM36.0 °F19.9 °F52 %29.86 in10.0 miVariable4.6 mphClear
10:54 AM37.9 °F19.9 °F48 %29.84 in10.0 miCalmClear
11:54 AM37.9 °F19.9 °F48 %29.85 in10.0 miESE (120°)3.5 mphClear
12:54 PM37.9 °F21.0 °F51 %29.80 in10.0 miSouth (190°)8.1 mphClear
1:54 PM39.9 °F21.0 °F47 %29.76 in10.0 miCalmClear
2:54 PM39.9 °F19.9 °F45 %29.75 in10.0 miCalmClear
3:54 PM39.9 °F21.0 °F47 %29.73 in10.0 miCalmClear
4:54 PM39.9 °F21.0 °F47 %29.71 in10.0 miCalmClear
5:54 PM36.0 °F26.1 °F67 %29.71 in10.0 miCalmScattered Clouds
6:54 PM35.1 °F27.0 °F72 %29.70 in10.0 miNorth (360°)3.5 mphOvercast
7:54 PM36.0 °F25.0 °F64 %29.70 in10.0 miNNE (30°)4.6 mphOvercast
8:54 PM37.0 °F21.9 °F54 %29.71 in10.0 miCalmOvercast
9:54 PM35.1 °F28.0 °F76 %29.72 in5.0 miNorth (350°)6.9 mph0.00 inSnowLight Snow
10:10 PM35.6 °F28.4 °F75 %29.71 in5.0 miNNW (340°)4.6 mph0.00 inSnowLight Snow
10:25 PM33.8 °F30.2 °F87 %29.71 in2.5 miNorth (350°)4.6 mph0.00 inSnowLight Snow
10:54 PM33.1 °F30.9 °F92 %29.72 in3.0 miNNE (20°)4.6 mph0.01 inSnowLight Snow
11:22 PM33.8 °F30.2 °F87 %29.70 in5.0 miNNE (30°)4.6 mph0.00 inSnowLight Snow
11:54 PM33.1 °F28.9 °F85 %29.72 in10.0 miNNE (30°)3.5 mph0.00 inOvercast
Hourly data recorded from KMGJ, located miles away from Newburgh, New York







STORIES FROM OUR PARTNERS